DW9945 Weather Reports


time (UTC)temp
C
wind
direction
speed
KPH
gust
KPH
rain 1hr
cm
rain 24hr
cm
rain mn
cm
humidity
%
barometer
mb
20260503200007 15 252 3.2 9.7 0.00 0.43 0.43 65 1011.5
20260503195007 15 270 3.2 12.9 0.00 0.43 0.43 65 1011.4
20260503194508 16 257 4.8 11.3 0.00 0.43 0.43 65 1011.4
20260503193507 16 235 8.0 12.9 0.00 0.43 0.43 64 1011.2
20260503193008 16 247 8.0 11.3 0.00 0.43 0.43 64 1011.2
20260503192507 16 241 8.0 14.5 0.00 0.43 0.43 64 1011.1
20260503192007 16 241 6.4 14.5 0.00 0.43 0.43 64 1011.1
20260503191507 16 240 6.4 12.9 0.00 0.43 0.43 63 1011.0
20260503191006 16 258 8.0 12.9 0.00 0.43 0.43 64 1010.9
20260503190507 16 283 1.6 4.8 0.00 0.43 0.43 67 1010.8
20260503190008 16 264 1.6 4.8 0.00 0.43 0.43 66 1010.8
20260503185507 16 282 3.2 11.3 0.00 0.43 0.43 65 1010.7
20260503185007 16 287 1.6 11.3 0.00 0.43 0.43 64 1010.7
20260503184508 16 260 4.8 11.3 0.00 0.43 0.43 63 1010.8
20260503184011 16 251 4.8 11.3 0.00 0.43 0.43 63 1010.7
20260503183507 16 252 3.2 4.8 0.00 0.43 0.43 64 1010.7
20260503183011 16 294 1.6 12.9 0.00 0.43 0.43 63 1010.7
20260503182509 17 282 8.0 14.5 0.00 0.43 0.43 61 1010.6
20260503182007 17 276 3.2 11.3 0.00 0.43 0.43 59 1010.6
20260503181507 17 277 4.8 14.5 0.00 0.43 0.43 58 1010.6
20260503180507 17 274 4.8 19.3 0.00 0.43 0.43 57 1010.6
20260503180007 18 278 3.2 12.9 0.00 0.43 0.43 57 1010.6
20260503175007 18 269 6.4 19.3 0.00 0.43 0.43 55 1010.6
20260503174507 18 251 11.3 19.3 0.00 0.43 0.43 54 1010.5
20260503174006 18 281 8.0 20.9 0.00 0.43 0.43 54 1010.5
20260503173507 18 293 8.0 19.3 0.00 0.43 0.43 54 1010.5
20260503173007 18 276 8.0 20.9 0.00 0.43 0.43 54 1010.6
20260503172507 18 242 8.0 19.3 0.00 0.43 0.43 55 1010.6
20260503172007 18 264 9.7 19.3 0.00 0.43 0.43 53 1010.5
20260503171507 18 272 11.3 24.1 0.00 0.43 0.43 51 1010.5
20260503171007 18 283 8.0 19.3 0.00 0.43 0.43 55 1010.5
20260503170507 18 265 8.0 19.3 0.00 0.43 0.43 55 1010.7
20260503151006 19 280 11.3 19.3 0.00 0.43 0.43 53 1010.6
20260503150507 19 257 9.7 24.1 0.00 0.43 0.43 52 1010.6
20260503131006 19 226 14.5 25.7 0.00 0.43 0.43 55 1011.5
20260503130507 18 247 11.3 27.4 0.00 0.61 0.43 56 1011.6
20260503110507 17 237 11.3 19.3 0.00 1.04 0.43 70 1012.9
20260503090508 15 195 4.8 12.9 0.00 1.09 0.43 89 1013.9
20260503081508 13 227 3.2 4.8 0.00 1.14 0.43 92 1013.9
20260503081008 13 223 0.0 4.8 0.00 1.14 0.43 93 1013.9
20260503080508 13 245 3.2 8.0 0.00 1.17 0.43 93 1013.9
20260503072508 12 246 3.2 4.8 0.33 1.37 0.43 93 1013.8
20260503071508 12 240 3.2 4.8 0.33 1.37 0.43 93 1013.8
20260503071008 12 264 3.2 9.7 0.33 1.37 0.43 94 1013.8
20260503070508 12 273 1.6 4.8 0.33 1.37 0.43 94 1013.7
20260503055008 11 24 0.0 0.0 0.00 1.22 0.08 93 1013.2
20260503054508 11 24 0.0 0.0 0.00 1.22 0.08 93 1013.0
20260503053507 11 24 0.0 0.0 0.00 1.22 0.08 93 1013.2
20260503053008 11 24 0.0 0.0 0.00 1.22 0.08 92 1013.2
20260503052508 11 24 0.0 0.0 0.00 1.22 0.08 93 1013.2
20260503052008 11 24 0.0 0.0 0.00 1.22 0.08 93 1013.1
20260503051508 11 24 0.0 0.0 0.00 1.22 0.08 93 1013.3
20260503051008 11 24 0.0 0.0 0.00 1.22 0.08 92 1013.4
20260503050507 11 24 0.0 0.0 0.00 1.22 0.08 92 1013.5
20260503050008 11 24 0.0 0.0 0.00 1.22 0.08 92 1013.4
20260503045007 11 24 0.0 0.0 0.00 1.22 0.08 92 1013.3
20260503044510 11 24 0.0 0.0 0.00 1.22 0.08 92 1013.3
20260503044008 11 24 0.0 0.0 0.00 1.22 0.08 93 1013.2
20260503043508 11 24 0.0 0.0 0.00 1.22 0.08 93 1013.2
20260503042507 11 24 0.0 0.0 0.00 1.22 0.08 92 1013.3
20260503042008 11 24 0.0 0.0 0.00 1.22 0.08 93 1013.3
20260503041507 11 24 0.0 0.0 0.00 1.22 0.08 93 1013.4
20260503040008 11 24 0.0 0.0 0.00 1.22 0.08 93 1013.4
20260503035507 11 24 0.0 0.0 0.00 1.22 0.08 93 1013.5
20260503035007 11 24 0.0 0.0 0.00 1.22 0.08 93 1013.5
20260503034508 11 24 0.0 0.0 0.00 1.22 0.08 93 1013.5
20260503034008 11 24 0.0 1.6 0.00 1.22 0.08 93 1013.6
20260503033508 11 24 1.6 3.2 0.00 1.22 0.08 93 1013.7
20260503033008 11 24 3.2 4.8 0.00 1.22 0.08 93 1013.8
20260503032508 11 24 1.6 4.8 0.00 1.22 0.08 93 1013.9
20260503032007 11 24 3.2 4.8 0.00 1.22 0.08 93 1013.9
20260503031508 11 24 3.2 4.8 0.00 1.22 0.08 93 1013.8
20260503031007 11 24 0.0 1.6 0.00 1.22 0.08 93 1013.8
20260503030508 11 24 0.0 0.0 0.00 1.22 0.08 93 1013.8
20260503030008 11 24 1.6 3.2 0.00 1.22 0.08 93 1013.8
20260503025507 11 24 3.2 4.8 0.00 1.22 0.08 93 1013.8
20260503025007 11 24 0.0 0.0 0.00 1.22 0.08 93 1013.8
20260503024508 11 24 0.0 0.0 0.00 1.22 0.08 93 1013.9
20260503023508 11 24 3.2 4.8 0.00 1.22 0.08 92 1013.9
20260503023008 11 24 3.2 4.8 0.00 1.22 0.08 92 1013.9
20260503022507 11 24 3.2 4.8 0.00 1.22 0.08 92 1014.0
20260503022007 11 24 4.8 4.8 0.00 1.22 0.08 92 1014.0
20260503021508 11 24 1.6 4.8 0.00 1.22 0.08 91 1014.0
20260503021007 11 134 0.0 0.0 0.00 1.22 0.08 91 1014.1
20260503020007 12 144 0.0 0.0 0.00 1.22 0.08 91 1014.0
20260503015508 12 144 0.0 0.0 0.00 1.22 0.08 91 1014.0
20260503015007 12 144 0.0 0.0 0.00 1.22 0.08 91 1014.0
20260503014507 12 144 0.0 0.0 0.00 1.22 0.08 91 1014.0
20260503014007 12 144 0.0 0.0 0.00 1.22 0.08 92 1014.1
20260503013508 12 144 0.0 0.0 0.00 1.22 0.08 92 1014.1
20260503013007 12 144 0.0 0.0 0.00 1.22 0.08 91 1014.1
20260503012508 12 144 0.0 0.0 0.00 1.22 0.08 91 1014.1
20260503011508 12 144 0.0 0.0 0.00 1.22 0.08 91 1014.1
20260503011008 12 144 0.0 0.0 0.00 1.22 0.08 91 1014.1
20260503010508 12 144 0.0 0.0 0.00 1.22 0.08 91 1014.2
20260503010013 12 144 0.0 0.0 0.00 1.22 0.08 91 1014.3
20260503005508 12 144 0.0 0.0 0.00 1.22 0.08 91 1014.3
20260503005007 12 144 0.0 0.0 0.00 1.22 0.08 91 1014.3
20260503003507 12 144 0.0 0.0 0.00 1.22 0.08 91 1014.4
20260503003007 12 144 0.0 0.0 0.00 1.22 0.08 90 1014.5
20260503002508 12 144 0.0 0.0 0.00 1.22 0.08 90 1014.5
20260503002007 12 144 0.0 0.0 0.00 1.22 0.08 90 1014.5
20260503000508 13 144 0.0 0.0 0.00 1.22 0.08 89 1014.6
20260502235509 13 144 0.0 0.0 0.00 1.22 0.08 89 1014.7
20260502234507 13 144 0.0 0.0 0.00 1.22 0.08 89 1014.8
20260502234008 13 144 1.6 4.8 0.00 1.22 0.08 89 1014.9
20260502233008 13 142 3.2 11.3 0.00 1.22 0.08 89 1014.8
20260502232507 13 9 0.0 0.0 0.00 1.22 0.08 89 1014.7
20260502231508 13 9 0.0 4.8 0.08 1.22 0.08 89 1014.8
20260502231007 13 9 3.2 4.8 0.08 1.22 0.08 89 1014.8
20260502230508 13 342 4.8 8.0 0.08 1.22 0.08 88 1014.8
20260502230007 13 321 3.2 4.8 0.08 1.22 0.08 87 1014.8
20260502225507 13 321 1.6 9.7 0.08 1.22 0.08 87 1014.9
20260502225007 13 327 8.0 9.7 0.08 1.22 0.08 87 1014.8
20260502223508 13 149 3.2 8.0 0.08 1.22 0.08 86 1014.7
20260502223007 13 170 3.2 4.8 0.08 1.22 0.08 85 1014.9
20260502222508 13 141 3.2 8.0 0.08 1.22 0.08 84 1014.9
20260502222008 14 170 3.2 8.0 0.05 1.17 0.05 82 1015.2
20260502221507 14 221 6.4 9.7 0.00 1.14 0.00 82 1015.3
20260502221007 13 196 4.8 8.0 0.00 1.14 0.00 83 1015.1
20260502220508 13 207 0.0 4.8 0.00 1.14 0.00 85 1014.9
20260502220007 13 210 0.0 0.0 0.00 1.14 0.00 86 1014.9
20260502215007 13 210 0.0 0.0 0.00 1.14 1.14 85 1015.1
20260502214507 12 210 0.0 0.0 0.00 1.14 1.14 85 1015.1
20260502214007 13 210 0.0 0.0 0.00 1.14 1.14 85 1015.1
20260502213507 13 210 0.0 0.0 0.00 1.14 1.14 85 1015.2
20260502213007 13 210 0.0 0.0 0.00 1.14 1.14 86 1015.1
20260502212507 13 210 0.0 0.0 0.00 1.14 1.14 85 1015.0
20260502212007 13 210 0.0 0.0 0.00 1.14 1.14 84 1015.2
20260502211507 13 210 0.0 0.0 0.00 1.14 1.14 84 1014.9
20260502211007 13 210 0.0 0.0 0.00 1.14 1.14 82 1014.9
20260502210007 13 210 0.0 0.0 0.00 1.14 1.14 82 1014.9
20260502205506 13 210 0.0 0.0 0.00 1.14 1.14 82 1014.9
20260502205007 13 210 0.0 0.0 0.00 1.14 1.14 82 1014.8
20260502204507 13 210 0.0 0.0 0.00 1.14 1.14 83 1014.7
20260502204007 13 210 0.0 0.0 0.00 1.14 1.14 83 1014.7
20260502203507 13 210 0.0 4.8 0.00 1.14 1.14 85 1014.6
20260502203007 13 222 0.0 0.0 0.00 1.14 1.14 85 1014.6
20260502202507 13 222 0.0 0.0 0.00 1.14 1.14 84 1014.5
20260502202007 13 222 0.0 0.0 0.00 1.14 1.14 84 1014.5
20260502201507 13 222 0.0 0.0 0.00 1.14 1.14 84 1014.3
20260502201007 13 222 0.0 0.0 0.00 1.14 1.14 84 1014.3